Powrót do katalogu

THORAD AGENA D DEB

AktywnyPO
NORAD 4867·DEBRIS·🇺🇸 United States

Wystrzelony Apr 8, 1970 z Vandenberg Space Force Base

Loading…

Następne Przeloty (najbliższe 24 godziny)

TLE

ŚwieżeSource: Space-Track

Epoka: Sep 14, 2026, 07:02 UTC

1 04867U 70025EX  26257.29321003  .00000587  00000-0  39195-3 0  9991
2 04867  99.6380 206.0163 0123360 232.7714 126.2143 14.01833427867228

Śledź THORAD AGENA D DEB w czasie rzeczywistym z AllMySat

Download on the App Store